Hourly Weather Roundup
Issued by NWS Central Illinois

Home | Current Version | Previous Version | Text Only | Print | Product List | Glossary On
Versions: 1 2 3 4 5 6 7 8 9 10 11 12 13 14 15 16 17 18 19 20 21 22 23 24 25 26 27 28 29 30 31 32 33 34 35 36 37 38 39 40 41 42 43 44 45 46 47 48 49 50
000
NZUS43 KILX 291610
HWRILX

AREA WEATHER ROUNDUP
NATIONAL WEATHER SERVICE, LINCOLN IL
1100 AM CDT WED JUL 29 2015


CITY           SKY/WX    TMP DP  RH WIND       PRES   REMARKS
BLOOMINGTON    PTSUNNY   82  76  82 NW10      30.04R HX  89
CHAMPAIGN      CLOUDY    81  75  82 NW8       30.02R HX  87
DANVILLE       CLOUDY    80  76  85 W7        29.98R HX  86
DECATUR        CLOUDY    81  75  82 NW10      30.02R HX  87
EFFINGHAM      CLOUDY    85  76  75 S5        30.00S HX  94
FLORA          CLOUDY    87  78  74 CALM      29.98F HX  98
GALESBURG      SUNNY     80  67  62 NW10      30.07R HX  83
JACKSONVILLE   PTSUNNY   82  74  77 NW10      30.05R HX  88
LACON          MOSUNNY   80  66  62 NW10      30.02R HX  83
LAWRENCEVILLE  CLOUDY    83  75  77 SW5       29.98F HX  90
LITCHFIELD     CLOUDY    78  73  84 NW12      30.03R HX  80
$$


CITY           SKY/WX    TMP DP  RH WIND       PRES   REMARKS
LINCOLN        PTSUNNY   85  74  70 N5        30.01S HX  92
MACOMB         SUNNY     81  67  61 N9        30.09R HX  83
MATTOON        CLOUDY    83  76  79 NW6       29.99R HX  91
MT CARMEL AP   CLOUDY    84  77  79 W6        29.99S HX  94
OLNEY-NOBLE AP PTSUNNY   82  77  83 CALM      29.99S HX  91
PARIS          CLOUDY    82  76  82 CALM      30.00S HX  90
PEORIA         MOSUNNY   83  68  60 N8        30.03R HX  86
PONTIAC        PTSUNNY   82  76  83 NW9       30.02R HX  90
RANTOUL        PTSUNNY   82  76  81 W9        30.01R HX  90
ROBINSON       PTSUNNY   84  76  76 S6        29.99S HX  93
SPRINGFIELD    PTSUNNY   86  75  69 N14       30.02S HX  95
TAYLORVILLE    CLOUDY    79  73  83 N8        30.02S HX  82
$$

...REGIONAL REPORTS...


CITY           SKY/WX    TMP DP  RH WIND       PRES   REMARKS
CHICAGO O`HARE PTSUNNY   82  66  58 NW13      29.98R HX  84
KANKAKEE       PTSUNNY   81  75  84 N8        30.00R HX  86
MOLINE         SUNNY     82  59  45 N9G17     30.05R HX  82
MOUNT STERLING NOT AVBL
MOUNT VERNON   MOSUNNY   90  77  66 W6        29.99F HX 102
PITTSFIELD     PTSUNNY   81  72  74 NW10G16   30.08R HX  86
QUINCY         MOSUNNY   82  67  60 N12       30.08R HX  84
ROCKFORD       PTSUNNY   80  56  43 NW16      30.03R HX  80
$$


CITY           SKY/WX    TMP DP  RH WIND       PRES   REMARKS
BURLINGTON     SUNNY     81  66  60 N8        30.08R HX  83
CEDAR RAPIDS   SUNNY     78  59  51 NW14G21   30.07R
DES MOINES     PTSUNNY   81  52  36 NW15      30.11S HX  80
KIRKSVILLE     PTSUNNY   80  66  62 N9        30.13R HX  82
OTTUMWA        MOSUNNY   79  62  56 NW9       30.10R HX  80
ST LOUIS       PTSUNNY   84  72  65 NW12G21   30.05R HX  89
$$


CITY           SKY/WX    TMP DP  RH WIND       PRES   REMARKS
TERRE HAUTE    PTSUNNY   84  74  71 CALM      29.99S HX  91
EVANSVILLE     PTSUNNY   84  75  74 SW7       30.00S HX  92
INDIANAPOLIS   PTSUNNY   86  72  62 W7        29.98S HX  92
LAFAYETTE      CLOUDY    80  73  79 W5        29.98R HX  84
MADISON        PTSUNNY   78  51  38 NW10G23   29.98S
MILWAUKEE      PTSUNNY   81  57  43 NW18G25   29.95R HX  81
$$




USA.gov is the U.S. government's official web portal to all federal, state and local government web resources and services.